timestamp,wind_dir_avg,wind_spd_avg,wind_spd_max_dir,wind_spd_gust,battery_voltage,lat,long
2021-07-17 00:04:00+00:00,212.0,7.17,217.0,7.86,13.13,47.59359,-54.27349
2021-07-17 00:14:01+00:00,210.0,6.39,212.0,7.1,12.65,47.59359,-54.27349
2021-07-17 00:24:01+00:00,208.0,6.31,211.0,6.88,12.65,47.59359,-54.27349
2021-07-17 00:34:01+00:00,203.0,6.85,206.0,7.34,12.65,47.59359,-54.27349
2021-07-17 00:44:01+00:00,209.0,6.47,211.0,7.4,12.65,47.59359,-54.27349
2021-07-17 00:54:01+00:00,204.0,6.61,208.0,7.09,12.65,47.59359,-54.27349
2021-07-17 01:04:01+00:00,203.0,6.85,204.0,7.31,12.65,47.59359,-54.27349
2021-07-17 01:14:01+00:00,202.0,6.6,205.0,7.21,12.65,47.59359,-54.27349
2021-07-17 01:24:01+00:00,207.0,6.14,212.0,6.93,12.65,47.59359,-54.27349
2021-07-17 01:34:01+00:00,214.0,7.56,217.0,8.36,12.65,47.59359,-54.27349
2021-07-17 01:44:01+00:00,212.0,7.76,212.0,8.87,12.65,47.59359,-54.27349
2021-07-17 01:54:01+00:00,213.0,7.6,209.0,8.33,12.65,47.59359,-54.27349
2021-07-17 02:04:01+00:00,216.0,8.11,217.0,9.07,12.65,47.59359,-54.27349
2021-07-17 02:14:00+00:00,214.0,7.3,214.0,7.83,12.57,47.59359,-54.27349
2021-07-17 02:24:00+00:00,212.0,7.48,214.0,8.37,12.57,47.59359,-54.27349
2021-07-17 02:34:00+00:00,202.0,7.21,210.0,7.91,12.57,47.59359,-54.27349
2021-07-17 02:44:00+00:00,201.0,6.94,208.0,8.12,12.57,47.59359,-54.27349
2021-07-17 02:54:00+00:00,209.0,7.09,205.0,8.45,12.57,47.59359,-54.27349
2021-07-17 03:04:00+00:00,213.0,7.28,219.0,8.23,12.57,47.59359,-54.27349
2021-07-17 03:14:00+00:00,212.0,8.04,213.0,9.0,12.57,47.59359,-54.27349
2021-07-17 03:24:00+00:00,216.0,8.24,212.0,9.01,12.57,47.59359,-54.27349
2021-07-17 03:34:00+00:00,222.0,7.13,222.0,8.08,12.57,47.59359,-54.27349
2021-07-17 03:44:00+00:00,226.0,6.76,235.0,8.94,12.57,47.59359,-54.27349
2021-07-17 03:54:00+00:00,214.0,5.65,214.0,6.44,12.57,47.59359,-54.27349
2021-07-17 04:04:00+00:00,215.0,5.37,214.0,6.01,12.57,47.59359,-54.27349
2021-07-17 04:14:01+00:00,202.0,5.14,202.0,5.74,12.57,47.59359,-54.27349
2021-07-17 04:24:01+00:00,200.0,6.13,200.0,6.56,12.57,47.59359,-54.27349
2021-07-17 04:34:01+00:00,203.0,6.58,202.0,7.46,12.57,47.59359,-54.27349
2021-07-17 04:44:01+00:00,212.0,6.69,217.0,7.46,12.57,47.59359,-54.27349
2021-07-17 04:54:01+00:00,204.0,7.05,208.0,8.32,12.57,47.59359,-54.27349
2021-07-17 05:04:01+00:00,201.0,6.57,206.0,7.71,12.57,47.59359,-54.27349
2021-07-17 05:14:00+00:00,209.0,6.23,210.0,7.07,12.57,47.59359,-54.27349
2021-07-17 05:24:00+00:00,202.0,6.51,201.0,7.17,12.57,47.59359,-54.27349
2021-07-17 05:34:00+00:00,215.0,6.32,218.0,7.71,12.57,47.59359,-54.27349
2021-07-17 05:44:00+00:00,213.0,6.97,222.0,7.9,12.57,47.59359,-54.27349
2021-07-17 05:54:00+00:00,209.0,7.19,207.0,8.38,12.57,47.59359,-54.27349
2021-07-17 06:04:00+00:00,209.0,6.49,207.0,7.47,12.57,47.59359,-54.27349
2021-07-17 06:14:01+00:00,212.0,7.35,207.0,7.96,12.49,47.59359,-54.27349
2021-07-17 06:24:01+00:00,217.0,7.59,219.0,8.15,12.49,47.59359,-54.27349
2021-07-17 06:34:01+00:00,215.0,7.41,212.0,8.04,12.49,47.59359,-54.27349
2021-07-17 06:44:01+00:00,215.0,7.84,214.0,8.64,12.49,47.59359,-54.27349
2021-07-17 06:54:01+00:00,215.0,7.7,216.0,8.48,12.49,47.59359,-54.27349
2021-07-17 07:04:01+00:00,218.0,7.86,209.0,9.81,12.49,47.59359,-54.27349
2021-07-17 07:14:01+00:00,224.0,6.3,225.0,7.12,12.41,47.59359,-54.27349
2021-07-17 07:24:01+00:00,222.0,6.97,215.0,8.4,12.41,47.59359,-54.27349
2021-07-17 07:34:01+00:00,219.0,7.89,223.0,8.81,12.41,47.59359,-54.27349
2021-07-17 07:44:01+00:00,221.0,7.22,224.0,8.15,12.41,47.59359,-54.27349
2021-07-17 07:54:01+00:00,230.0,6.34,235.0,7.68,12.41,47.59359,-54.27349
2021-07-17 08:04:01+00:00,220.0,6.46,221.0,7.09,12.41,47.59359,-54.27349
2021-07-17 08:14:00+00:00,219.0,6.43,217.0,7.08,12.41,47.59359,-54.27349
2021-07-17 08:24:00+00:00,216.0,7.47,215.0,8.03,12.41,47.59359,-54.27349
2021-07-17 08:34:00+00:00,211.0,7.23,212.0,7.75,12.41,47.59359,-54.27349
2021-07-17 08:44:00+00:00,212.0,6.76,214.0,7.34,12.41,47.59359,-54.27349
2021-07-17 08:54:00+00:00,212.0,6.85,210.0,7.44,12.41,47.59359,-54.27349
2021-07-17 09:04:00+00:00,218.0,5.99,221.0,6.86,12.41,47.59359,-54.27349
2021-07-17 09:14:01+00:00,215.0,6.78,213.0,7.49,12.57,47.59359,-54.27349
2021-07-17 09:24:01+00:00,221.0,5.11,229.0,5.61,12.57,47.59359,-54.27349
2021-07-17 09:34:01+00:00,224.0,6.3,222.0,7.1,12.57,47.59359,-54.27349
2021-07-17 09:44:01+00:00,211.0,6.2,214.0,6.89,12.57,47.59359,-54.27349
2021-07-17 09:54:01+00:00,201.0,5.9,202.0,6.31,12.57,47.59359,-54.27349
2021-07-17 10:04:01+00:00,192.0,5.69,193.0,6.17,12.57,47.59359,-54.27349
2021-07-17 10:14:01+00:00,217.0,5.44,219.0,6.38,12.57,47.59359,-54.27349
2021-07-17 10:24:01+00:00,210.0,6.87,211.0,8.07,12.57,47.59359,-54.27349
2021-07-17 10:34:01+00:00,202.0,5.63,204.0,6.17,12.57,47.59359,-54.27349
2021-07-17 10:44:01+00:00,204.0,6.04,206.0,6.88,12.57,47.59359,-54.27349
2021-07-17 10:54:01+00:00,167.0,6.02,159.0,6.64,12.57,47.59359,-54.27349
2021-07-17 11:04:01+00:00,213.0,6.87,218.0,8.15,12.57,47.59359,-54.27349
2021-07-17 11:14:01+00:00,222.0,4.68,214.0,5.47,12.97,47.59359,-54.27349
2021-07-17 11:24:01+00:00,228.0,5.33,228.0,5.91,12.97,47.59359,-54.27349
2021-07-17 11:34:01+00:00,222.0,5.24,211.0,6.49,12.97,47.59359,-54.27349
2021-07-17 11:44:01+00:00,220.0,5.34,223.0,6.41,12.97,47.59359,-54.27349
2021-07-17 11:54:01+00:00,212.0,6.26,214.0,7.28,12.97,47.59359,-54.27349
2021-07-17 12:04:01+00:00,197.0,4.6,194.0,5.35,12.97,47.59359,-54.27349
2021-07-17 12:14:01+00:00,214.0,6.0,213.0,7.43,13.6,47.59359,-54.27349
2021-07-17 12:24:01+00:00,213.0,7.35,210.0,8.61,13.6,47.59359,-54.27349
2021-07-17 12:34:01+00:00,214.0,9.86,215.0,11.55,13.6,47.59359,-54.27349
2021-07-17 12:44:01+00:00,217.0,10.17,217.0,12.1,13.6,47.59359,-54.27349
2021-07-17 12:54:01+00:00,216.0,10.45,224.0,11.72,13.6,47.59359,-54.27349
2021-07-17 13:04:01+00:00,219.0,9.19,216.0,10.72,13.6,47.59359,-54.27349
2021-07-17 13:14:01+00:00,216.0,9.34,219.0,10.72,13.68,47.59359,-54.27349
2021-07-17 13:24:01+00:00,213.0,9.35,217.0,10.78,13.68,47.59359,-54.27349
2021-07-17 13:34:01+00:00,211.0,8.37,213.0,9.29,13.68,47.59359,-54.27349
2021-07-17 13:44:01+00:00,206.0,8.6,204.0,9.5,13.68,47.59359,-54.27349
2021-07-17 13:54:01+00:00,207.0,8.63,210.0,9.38,13.68,47.59359,-54.27349
2021-07-17 14:04:01+00:00,204.0,8.09,207.0,8.83,13.68,47.59359,-54.27349
2021-07-17 14:14:01+00:00,209.0,7.68,212.0,8.43,13.92,47.59359,-54.27349
2021-07-17 14:24:01+00:00,210.0,8.12,210.0,9.14,13.92,47.59359,-54.27349
2021-07-17 14:34:01+00:00,208.0,8.51,213.0,9.83,13.92,47.59359,-54.27349
2021-07-17 14:44:01+00:00,213.0,9.2,219.0,11.0,13.92,47.59359,-54.27349
2021-07-17 14:54:01+00:00,209.0,8.59,215.0,9.94,13.92,47.59359,-54.27349
2021-07-17 15:04:01+00:00,217.0,8.29,222.0,9.57,13.92,47.59359,-54.27349
2021-07-17 15:14:01+00:00,215.0,9.66,217.0,11.07,13.84,47.59359,-54.27349
2021-07-17 15:24:01+00:00,208.0,8.95,210.0,10.04,13.84,47.59359,-54.27349
2021-07-17 15:34:01+00:00,210.0,9.44,211.0,10.71,13.84,47.59359,-54.27349
2021-07-17 15:44:01+00:00,213.0,9.78,215.0,11.29,13.84,47.59359,-54.27349
2021-07-17 15:54:01+00:00,210.0,10.55,209.0,12.01,13.84,47.59359,-54.27349
2021-07-17 16:04:01+00:00,207.0,9.44,207.0,10.55,13.84,47.59359,-54.27349
2021-07-17 16:14:01+00:00,223.0,8.1,218.0,9.42,13.84,47.59359,-54.27349
2021-07-17 16:24:01+00:00,214.0,8.79,209.0,10.98,13.84,47.59359,-54.27349
2021-07-17 16:34:01+00:00,216.0,8.92,218.0,9.7,13.84,47.59359,-54.27349
2021-07-17 16:44:01+00:00,217.0,8.1,221.0,8.88,13.84,47.59359,-54.27349
2021-07-17 16:54:01+00:00,209.0,7.53,213.0,8.51,13.84,47.59359,-54.27349
2021-07-17 17:04:01+00:00,210.0,8.26,211.0,9.15,13.84,47.59359,-54.27349
2021-07-17 17:14:01+00:00,214.0,7.78,215.0,8.47,13.76,47.59359,-54.27349
2021-07-17 17:24:01+00:00,210.0,7.48,207.0,8.45,13.76,47.59359,-54.27349
2021-07-17 17:34:01+00:00,213.0,7.53,225.0,8.51,13.76,47.59359,-54.27349
2021-07-17 17:44:01+00:00,215.0,7.36,215.0,8.14,13.76,47.59359,-54.27349
2021-07-17 17:54:01+00:00,205.0,8.28,206.0,8.99,13.76,47.59359,-54.27349
2021-07-17 18:04:01+00:00,211.0,7.8,209.0,8.57,13.76,47.59359,-54.27349
2021-07-17 18:14:01+00:00,212.0,7.01,215.0,7.53,13.84,47.59359,-54.27349
2021-07-17 18:24:01+00:00,203.0,6.56,204.0,7.3,13.84,47.59359,-54.27349
2021-07-17 18:34:01+00:00,198.0,6.09,204.0,6.73,13.84,47.59359,-54.27349
2021-07-17 18:44:01+00:00,191.0,6.02,193.0,6.78,13.84,47.59359,-54.27349
2021-07-17 18:54:01+00:00,192.0,5.77,194.0,6.68,13.84,47.59359,-54.27349
2021-07-17 19:04:01+00:00,196.0,6.88,200.0,7.65,13.84,47.59359,-54.27349
2021-07-17 19:14:01+00:00,197.0,7.28,200.0,7.9,13.84,47.59359,-54.27349
2021-07-17 19:24:01+00:00,196.0,7.87,192.0,9.22,13.84,47.59359,-54.27349
2021-07-17 19:34:01+00:00,196.0,8.2,193.0,10.6,13.84,47.59359,-54.27349
2021-07-17 19:44:01+00:00,199.0,8.28,198.0,9.14,13.84,47.59359,-54.27349
2021-07-17 19:54:01+00:00,201.0,7.48,205.0,8.42,13.84,47.59359,-54.27349
2021-07-17 20:04:01+00:00,198.0,7.55,197.0,8.48,13.84,47.59359,-54.27349
2021-07-17 20:14:01+00:00,206.0,8.09,203.0,8.76,13.68,47.59359,-54.27349
2021-07-17 20:24:01+00:00,197.0,9.24,199.0,9.83,13.68,47.59359,-54.27349
2021-07-17 20:34:01+00:00,194.0,7.85,197.0,8.86,13.68,47.59359,-54.27349
2021-07-17 20:44:01+00:00,200.0,7.76,198.0,9.33,13.68,47.59359,-54.27349
2021-07-17 20:54:01+00:00,199.0,8.58,201.0,9.37,13.68,47.59359,-54.27349
2021-07-17 21:04:01+00:00,207.0,7.54,205.0,8.38,13.68,47.59359,-54.27349
2021-07-17 21:14:01+00:00,210.0,8.49,213.0,9.31,13.68,47.59359,-54.27349
2021-07-17 21:24:01+00:00,205.0,8.29,204.0,9.36,13.68,47.59359,-54.27349
2021-07-17 21:34:01+00:00,203.0,8.69,201.0,9.45,13.68,47.59359,-54.27349
2021-07-17 21:44:01+00:00,205.0,8.22,205.0,8.82,13.68,47.59359,-54.27349
2021-07-17 21:54:01+00:00,209.0,7.95,208.0,8.61,13.68,47.59359,-54.27349
2021-07-17 22:04:01+00:00,204.0,7.94,202.0,8.75,13.68,47.59359,-54.27349
2021-07-17 22:14:01+00:00,206.0,7.39,200.0,9.13,13.6,47.59359,-54.27349
2021-07-17 22:24:01+00:00,208.0,7.42,207.0,8.56,13.6,47.59359,-54.27349
2021-07-17 22:34:01+00:00,202.0,7.15,204.0,7.82,13.6,47.59359,-54.27349
2021-07-17 22:44:01+00:00,202.0,6.92,210.0,7.42,13.6,47.59359,-54.27349
2021-07-17 22:54:01+00:00,198.0,7.08,197.0,7.56,13.6,47.59359,-54.27349
2021-07-17 23:04:01+00:00,201.0,6.77,196.0,7.37,13.6,47.59359,-54.27349
2021-07-17 23:14:00+00:00,203.0,6.73,205.0,7.29,13.21,47.59359,-54.27349
2021-07-17 23:24:00+00:00,201.0,7.24,206.0,7.98,13.21,47.59359,-54.27349
2021-07-17 23:34:00+00:00,208.0,7.46,207.0,8.1,13.21,47.59359,-54.27349
2021-07-17 23:44:00+00:00,200.0,6.53,202.0,7.81,13.21,47.59359,-54.27349
2021-07-17 23:54:00+00:00,212.0,6.8,215.0,7.48,13.21,47.59359,-54.27349
